Flag for France Weather past 2 weeks in Orléans, France

Now
55 °F

Partly cloudy.


Feels Like: 51 °F
Forecast: 46 / 55 °F
Wind: 21 mph from Southwest

Location: Orleans Airport

Current Time: Mar 30, 2015 at 10:58:07 PM

Latest Report: Mar 30, 2015 at 10:30 PM


Visibility: N/A

Pressure: 30.01 "Hg

Humidity: 82%

Dew point: 50 °F

Location of OrléansLocation

Historic Weather in Orléans — Graph

°F

Orléans temperature yesterday

Maximum temperature yesterday: 55 °F (at 3:00 PM)
Minimum temperature yesterday: 50 °F (at 3:00 AM)
Average temperature yesterday: 52 °F

Past Weeks' High & Low Weather Summary

 TemperatureHumidityPressure
High63 °F (Mar 17, 2:30 PM)100% (Mar 17, 7:00 AM)30.36 "Hg (Mar 17, 7:00 AM)
Low30 °F (Mar 17, 7:00 AM)37% (Mar 17, 5:00 PM)29.74 "Hg (Mar 24, 3:00 PM)
Average46 °F78%30.06 "Hg
* Reported Mar 15 8:00 PM — Mar 30 9:30 PM, Orléans, Weather by CustomWeather, © 2015

Note: Actual official high and low records may vary slightly from our data, if they occured in-between our weather recording intervals... More about our weather records

Advertising

Orléans weather history for previous 24 hours

 ConditionsComfort  
Time TempWeatherWind HumidityBarometerVisibility
9:30 PM
Mon, Mar 30
54 °FPassing clouds.14 mph88%30.01 "HgN/A
9:00 PM54 °FMostly cloudy.9 mph82%30.01 "HgN/A
8:30 PM54 °FMostly cloudy.8 mph77%30.01 "HgN/A
8:00 PM54 °FPartly sunny.6 mph77%30.01 "HgN/A
7:30 PM54 °FMore clouds than sun.6 mph77%30.04 "HgN/A
7:00 PM54 °FOvercast.9 mph77%30.01 "HgN/A
6:30 PM54 °FLight rain. Clear.13 mph72%30.01 "HgN/A
6:00 PM55 °FClear.15 mph67%30.01 "HgN/A
5:30 PM55 °FPartly sunny.18 mph67%30.04 "HgN/A
5:00 PM55 °FMostly cloudy.18 mph67%30.04 "HgN/A
4:30 PM55 °FMostly cloudy.18 mph67%30.04 "HgN/A
4:00 PM55 °FMostly cloudy.18 mph63%30.04 "HgN/A
3:30 PM55 °FMostly cloudy.17 mph63%30.04 "HgN/A
3:00 PM55 °FCloudy.17 mph63%30.01 "HgN/A
2:30 PM55 °FBroken clouds.20 mph59%30.01 "HgN/A
2:00 PM55 °FBroken clouds.20 mph59%30.01 "HgN/A
1:30 PM55 °FPartly sunny.16 mph59%30.01 "HgN/A
1:00 PM55 °FPartly sunny.20 mph59%30.01 "HgN/A
12:30 PM54 °FPartly sunny.20 mph63%30.01 "HgN/A
12:00 PM54 °FBroken clouds.20 mph63%29.98 "HgN/A
11:30 AM54 °FPartly sunny.18 mph72%29.98 "HgN/A
11:00 AM54 °FPartly sunny.20 mph67%29.98 "HgN/A
10:30 AM54 °FMostly cloudy.17 mph82%29.95 "HgN/A
10:00 AM54 °FBroken clouds.23 mph82%29.92 "HgN/A
9:30 AM54 °FPartly sunny.20 mph82%29.92 "HgN/A
9:00 AM54 °FScattered clouds.20 mph82%29.89 "HgN/A
8:30 AM52 °FPassing clouds.18 mph88%29.86 "HgN/A
8:00 AM52 °FMostly cloudy.18 mph94%29.86 "HgN/A
7:30 AM52 °FPartly cloudy.17 mph94%29.83 "HgN/A
7:00 AM52 °FFog.18 mph94%29.80 "Hg2 mi
6:30 AM52 °FFog.18 mph94%29.80 "Hg3 mi
6:00 AM52 °FMostly cloudy.22 mph94%29.77 "HgN/A
5:30 AM52 °FMostly cloudy.22 mph94%29.80 "HgN/A
4:30 AM52 °FMostly cloudy.24 mph94%29.77 "HgN/A
4:00 AM52 °FMostly cloudy.23 mph94%29.77 "HgN/A
3:30 AM52 °FOvercast.24 mph94%29.77 "HgN/A
3:00 AM52 °FMostly cloudy.24 mph94%29.77 "HgN/A
2:30 AM52 °FMostly cloudy.24 mph94%29.77 "HgN/A
2:00 AM52 °FDrizzle. Overcast.25 mph94%29.77 "HgN/A
1:00 AM52 °FDrizzle. Mostly cloudy.24 mph94%29.80 "HgN/A
12:30 AM52 °FMostly cloudy.23 mph94%29.80 "HgN/A
12:00 AM52 °FOvercast.24 mph94%29.80 "HgN/A
11:30 PM
Sun, Mar 29
52 °FLight rain. Mostly cloudy.24 mph94%29.80 "HgN/A
11:00 PM52 °FLight rain. Mostly cloudy.21 mph94%29.80 "HgN/A
10:30 PM54 °FLight rain. Overcast.26 mph88%29.80 "HgN/A
10:00 PM54 °FOvercast.26 mph88%29.80 "HgN/A
Weather by CustomWeather, © 2015

See weather overviewHow to use our weather pages